User: anonymous   Login
Location: Muenchen
(48.1800°N, 11.5800°E)
Time: 03:52:06
(UTC+02:00)
Language:

Iridium 37 - Orbit

View from above orbital plane
View from above orbital plane
View from above satellite
View from above satellite

Ground track
Ground track

The orbit data is extracted from the following two-line orbital elements,

1 24968U 97056D   15243.49503723  .00000005  00000-0 -51536-5 0  9995
2 24968 086.3943 232.9050 0002366 088.3833 271.7634 14.34216652938559
Epoch (UTC): 31 August 2015 11:52:51
Eccentricity: 0.0002366
inclination: 86.3943°
perigee height: 776 km
apogee height: 779 km
right ascension of ascending node: 232.9050°
argument of perigee: 88.3833°
revolutions per day: 14.34216652
mean anomaly at epoch: 271.7634°
orbit number at epoch: 93855

The dashed part of the orbit path shows where the satellite is in the earth's shadow,  

DLR